Time,TemperatureF,DewpointF,PressureIn,WindDirection,WindDirectionDegrees,WindSpeedMPH,WindSpeedGustMPH,Humidity,HourlyPrecipIn,Conditions,Clouds,dailyrainin,SoftwareType,DateUTC
2013-10-20 00:00:00,48.4,39.8,29.93,SSW,202,5.0,10.0,72,0.00,,,0.00,VWS V14.00,2013-10-20 05:00:00,
2013-10-20 00:05:00,48.5,39.9,29.93,SSW,202,5.0,9.0,72,0.00,,,0.00,VWS V14.00,2013-10-20 05:05:00,
2013-10-20 00:10:00,48.5,39.9,29.93,SSW,202,5.0,9.0,72,0.00,,,0.00,VWS V14.00,2013-10-20 05:10:00,
2013-10-20 00:15:00,48.6,40.0,29.93,SSW,202,6.0,12.0,72,0.00,,,0.00,VWS V14.00,2013-10-20 05:15:00,
2013-10-20 00:20:00,48.6,40.0,29.93,SSW,202,6.0,9.0,72,0.00,,,0.00,VWS V14.00,2013-10-20 05:20:00,
2013-10-20 00:25:00,48.7,40.1,29.93,SSW,202,5.0,10.0,72,0.00,,,0.00,VWS V14.00,2013-10-20 05:25:00,
2013-10-20 00:30:00,48.7,39.7,29.93,SSW,202,5.0,8.0,71,0.00,,,0.00,VWS V14.00,2013-10-20 05:30:00,
2013-10-20 00:35:00,48.7,39.7,29.92,SSW,202,5.0,10.0,71,0.00,,,0.00,VWS V14.00,2013-10-20 05:35:00,
2013-10-20 00:40:00,48.7,39.7,29.92,SSW,202,4.0,8.0,71,0.00,,,0.00,VWS V14.00,2013-10-20 05:40:00,
2013-10-20 00:45:00,48.6,39.6,29.92,SSW,202,4.0,7.0,71,0.00,,,0.00,VWS V14.00,2013-10-20 05:45:00,
2013-10-20 00:50:00,48.5,39.5,29.92,SSW,202,4.0,8.0,71,0.00,,,0.00,VWS V14.00,2013-10-20 05:50:00,
2013-10-20 00:55:00,48.4,39.4,29.92,SSW,202,4.0,6.0,71,0.00,,,0.00,VWS V14.00,2013-10-20 05:55:00,
2013-10-20 01:00:00,48.3,39.3,29.92,SSW,202,4.0,8.0,71,0.00,,,0.00,VWS V14.00,2013-10-20 06:00:00,
2013-10-20 01:05:00,48.2,39.6,29.92,SSW,202,4.0,7.0,72,0.00,,,0.00,VWS V14.00,2013-10-20 06:05:00,
2013-10-20 01:10:00,48.1,39.5,29.92,SSW,202,4.0,9.0,72,0.00,,,0.00,VWS V14.00,2013-10-20 06:10:00,
2013-10-20 01:15:00,48.0,39.4,29.92,SSW,202,4.0,9.0,72,0.00,,,0.00,VWS V14.00,2013-10-20 06:15:00,
2013-10-20 01:20:00,48.0,39.4,29.92,SSW,202,5.0,8.0,72,0.00,,,0.00,VWS V14.00,2013-10-20 06:20:00,
2013-10-20 01:25:00,48.1,39.5,29.92,SSW,202,5.0,10.0,72,0.00,,,0.00,VWS V14.00,2013-10-20 06:25:00,
2013-10-20 01:30:00,48.1,39.5,29.92,SSW,202,5.0,10.0,72,0.00,,,0.00,VWS V14.00,2013-10-20 06:30:00,
2013-10-20 01:35:00,48.0,39.4,29.92,SSW,202,5.0,9.0,72,0.00,,,0.00,VWS V14.00,2013-10-20 06:35:00,
2013-10-20 01:40:00,48.0,39.4,29.92,SSW,202,5.0,8.0,72,0.00,,,0.00,VWS V14.00,2013-10-20 06:40:00,
2013-10-20 01:45:00,48.1,39.2,29.91,SSW,202,5.0,10.0,71,0.00,,,0.00,VWS V14.00,2013-10-20 06:45:00,
2013-10-20 01:50:00,48.1,39.2,29.91,SSW,202,5.0,10.0,71,0.00,,,0.00,VWS V14.00,2013-10-20 06:50:00,
2013-10-20 01:55:00,48.1,39.2,29.91,SSW,202,6.0,11.0,71,0.00,,,0.00,VWS V14.00,2013-10-20 06:55:00,
2013-10-20 02:00:00,48.0,39.1,29.91,South,180,5.0,9.0,71,0.00,,,0.00,VWS V14.00,2013-10-20 07:00:00,
2013-10-20 02:05:00,47.9,39.3,29.91,SSW,202,6.0,10.0,72,0.00,,,0.00,VWS V14.00,2013-10-20 07:05:00,
2013-10-20 02:10:00,47.9,39.3,29.91,SSW,202,6.0,11.0,72,0.00,,,0.00,VWS V14.00,2013-10-20 07:10:00,
2013-10-20 02:15:00,47.8,39.2,29.91,SSW,202,6.0,10.0,72,0.00,,,0.00,VWS V14.00,2013-10-20 07:15:00,
2013-10-20 02:20:00,47.8,38.9,29.91,SSW,202,5.0,9.0,71,0.00,,,0.00,VWS V14.00,2013-10-20 07:20:00,
2013-10-20 02:25:00,47.7,39.1,29.91,SSW,202,4.0,8.0,72,0.00,,,0.00,VWS V14.00,2013-10-20 07:25:00,
2013-10-20 02:30:00,47.6,39.0,29.91,SSW,202,5.0,8.0,72,0.00,,,0.00,VWS V14.00,2013-10-20 07:30:00,
2013-10-20 02:35:00,47.5,38.9,29.91,South,180,4.0,8.0,72,0.00,,,0.00,VWS V14.00,2013-10-20 07:35:00,
2013-10-20 02:40:00,47.4,38.8,29.91,SSW,202,4.0,8.0,72,0.00,,,0.00,VWS V14.00,2013-10-20 07:40:00,
2013-10-20 02:45:00,47.3,39.1,29.90,SSW,202,5.0,8.0,73,0.00,,,0.00,VWS V14.00,2013-10-20 07:45:00,
2013-10-20 02:50:00,47.1,38.9,29.90,SSW,202,5.0,11.0,73,0.00,,,0.00,VWS V14.00,2013-10-20 07:50:00,
2013-10-20 02:55:00,47.0,38.8,29.90,South,180,4.0,10.0,73,0.00,,,0.00,VWS V14.00,2013-10-20 07:55:00,
2013-10-20 03:00:00,46.8,38.6,29.90,SSW,202,5.0,8.0,73,0.00,,,0.00,VWS V14.00,2013-10-20 08:00:00,
2013-10-20 03:05:00,46.7,38.9,29.90,South,180,5.0,9.0,74,0.00,,,0.00,VWS V14.00,2013-10-20 08:05:00,
2013-10-20 03:10:00,46.5,38.7,29.90,South,180,5.0,9.0,74,0.00,,,0.00,VWS V14.00,2013-10-20 08:10:00,
2013-10-20 03:15:00,46.4,38.6,29.90,SSW,202,6.0,9.0,74,0.00,,,0.00,VWS V14.00,2013-10-20 08:15:00,
2013-10-20 03:20:00,46.4,38.9,29.90,SSW,202,5.0,9.0,75,0.00,,,0.00,VWS V14.00,2013-10-20 08:20:00,
2013-10-20 03:25:00,46.3,38.8,29.90,SSW,202,5.0,9.0,75,0.00,,,0.00,VWS V14.00,2013-10-20 08:25:00,
2013-10-20 03:30:00,46.2,38.7,29.89,SSW,202,6.0,10.0,75,0.00,,,0.00,VWS V14.00,2013-10-20 08:30:00,
2013-10-20 03:35:00,46.0,38.5,29.90,SSW,202,6.0,10.0,75,0.00,,,0.00,VWS V14.00,2013-10-20 08:35:00,
2013-10-20 03:40:00,46.0,38.5,29.89,SSW,202,5.0,8.0,75,0.00,,,0.00,VWS V14.00,2013-10-20 08:40:00,
2013-10-20 03:45:00,45.9,38.8,29.89,South,180,5.0,11.0,76,0.00,,,0.00,VWS V14.00,2013-10-20 08:45:00,
2013-10-20 03:50:00,45.8,38.7,29.89,SSW,202,5.0,11.0,76,0.00,,,0.00,VWS V14.00,2013-10-20 08:50:00,
2013-10-20 03:55:00,45.8,38.7,29.89,SSW,202,6.0,10.0,76,0.00,,,0.00,VWS V14.00,2013-10-20 08:55:00,
2013-10-20 04:00:00,45.7,38.6,29.88,SSW,202,5.0,9.0,76,0.00,,,0.00,VWS V14.00,2013-10-20 09:00:00,
2013-10-20 04:05:00,45.6,38.5,29.88,SSW,202,6.0,11.0,76,0.00,,,0.00,VWS V14.00,2013-10-20 09:05:00,
2013-10-20 04:10:00,45.5,38.4,29.88,SSW,202,5.0,9.0,76,0.00,,,0.00,VWS V14.00,2013-10-20 09:10:00,
2013-10-20 04:15:00,45.4,38.3,29.88,SSW,202,6.0,10.0,76,0.00,,,0.00,VWS V14.00,2013-10-20 09:15:00,
2013-10-20 04:20:00,45.4,38.3,29.88,South,180,6.0,9.0,76,0.00,,,0.00,VWS V14.00,2013-10-20 09:20:00,
2013-10-20 04:25:00,45.3,38.5,29.88,South,180,6.0,10.0,77,0.00,,,0.00,VWS V14.00,2013-10-20 09:25:00,
2013-10-20 04:30:00,45.2,38.4,29.88,SSW,202,6.0,9.0,77,0.00,,,0.00,VWS V14.00,2013-10-20 09:30:00,
2013-10-20 04:35:00,45.1,38.3,29.88,SSW,202,6.0,11.0,77,0.00,,,0.00,VWS V14.00,2013-10-20 09:35:00,
2013-10-20 04:40:00,45.0,38.2,29.88,SSW,202,6.0,12.0,77,0.00,,,0.00,VWS V14.00,2013-10-20 09:40:00,
2013-10-20 04:45:00,45.0,38.2,29.88,SSW,202,6.0,10.0,77,0.00,,,0.00,VWS V14.00,2013-10-20 09:45:00,
2013-10-20 04:50:00,45.1,38.3,29.88,SSW,202,6.0,10.0,77,0.00,,,0.00,VWS V14.00,2013-10-20 09:50:00,
2013-10-20 04:55:00,45.1,38.3,29.88,SSW,202,6.0,10.0,77,0.00,,,0.00,VWS V14.00,2013-10-20 09:55:00,
2013-10-20 05:00:00,45.1,38.3,29.88,SSW,202,6.0,11.0,77,0.00,,,0.00,VWS V14.00,2013-10-20 10:00:00,
2013-10-20 05:05:00,45.1,38.3,29.88,SSW,202,6.0,11.0,77,0.00,,,0.00,VWS V14.00,2013-10-20 10:05:00,
2013-10-20 05:10:00,45.1,38.3,29.88,SSW,202,5.0,9.0,77,0.00,,,0.00,VWS V14.00,2013-10-20 10:10:00,
2013-10-20 05:15:00,45.1,38.3,29.88,SSW,202,6.0,12.0,77,0.00,,,0.00,VWS V14.00,2013-10-20 10:15:00,
2013-10-20 05:20:00,45.1,38.3,29.88,SSW,202,5.0,10.0,77,0.00,,,0.00,VWS V14.00,2013-10-20 10:20:00,
2013-10-20 05:31:00,45.0,38.2,29.88,SSW,202,5.0,10.0,77,0.00,,,0.00,VWS V14.00,2013-10-20 10:31:00,
2013-10-20 05:32:00,45.0,38.2,29.87,SW,218,4.0,5.0,77,0.00,,,0.00,VWS V14.00,2013-10-20 10:32:00,
2013-10-20 05:37:00,44.9,38.1,29.87,South,183,5.0,10.0,77,0.00,,,0.00,VWS V14.00,2013-10-20 10:37:00,
2013-10-20 05:42:00,44.9,38.5,29.88,SSW,199,6.0,10.0,78,0.00,,,0.00,VWS V14.00,2013-10-20 10:42:00,
2013-10-20 05:47:00,44.8,38.4,29.87,SSW,212,3.0,11.0,78,0.00,,,0.00,VWS V14.00,2013-10-20 10:47:00,
2013-10-20 05:52:00,44.7,38.3,29.87,SSW,212,8.0,10.0,78,0.00,,,0.00,VWS V14.00,2013-10-20 10:52:00,
2013-10-20 05:57:00,44.7,38.3,29.87,SSW,211,4.0,9.0,78,0.00,,,0.00,VWS V14.00,2013-10-20 10:57:00,
2013-10-20 06:02:00,44.7,38.3,29.88,South,184,4.0,10.0,78,0.00,,,0.00,VWS V14.00,2013-10-20 11:02:00,
2013-10-20 06:07:00,44.7,38.3,29.88,SSW,193,5.0,9.0,78,0.00,,,0.00,VWS V14.00,2013-10-20 11:07:00,
2013-10-20 06:12:00,44.7,38.3,29.87,SSW,207,7.0,10.0,78,0.00,,,0.00,VWS V14.00,2013-10-20 11:12:00,
2013-10-20 06:17:00,44.7,38.3,29.87,SSW,212,9.0,9.0,78,0.00,,,0.00,VWS V14.00,2013-10-20 11:17:00,
2013-10-20 06:20:00,44.7,38.3,29.87,SSW,202,5.0,9.0,78,0.00,,,0.00,VWS V14.00,2013-10-20 11:20:00,
2013-10-20 06:25:00,44.8,38.4,29.87,SSW,202,6.0,11.0,78,0.00,,,0.00,VWS V14.00,2013-10-20 11:25:00,
2013-10-20 06:30:00,44.7,38.3,29.87,SSW,202,5.0,10.0,78,0.00,,,0.00,VWS V14.00,2013-10-20 11:30:00,
2013-10-20 06:35:00,44.7,38.6,29.87,SSW,202,5.0,10.0,79,0.00,,,0.00,VWS V14.00,2013-10-20 11:35:00,
2013-10-20 06:40:00,44.7,38.6,29.87,SSW,202,5.0,11.0,79,0.00,,,0.00,VWS V14.00,2013-10-20 11:40:00,
2013-10-20 06:45:00,44.7,38.6,29.87,SSW,202,6.0,10.0,79,0.00,,,0.00,VWS V14.00,2013-10-20 11:45:00,
2013-10-20 06:50:00,44.7,38.6,29.87,SSW,202,5.0,9.0,79,0.00,,,0.00,VWS V14.00,2013-10-20 11:50:00,
2013-10-20 06:55:00,44.6,38.5,29.87,SSW,202,6.0,9.0,79,0.00,,,0.00,VWS V14.00,2013-10-20 11:55:00,
2013-10-20 07:00:00,44.6,38.5,29.88,SSW,202,5.0,11.0,79,0.00,,,0.00,VWS V14.00,2013-10-20 12:00:00,
2013-10-20 07:05:00,44.6,38.5,29.87,SSW,202,6.0,12.0,79,0.00,,,0.00,VWS V14.00,2013-10-20 12:05:00,
2013-10-20 07:10:00,44.5,38.4,29.87,SSW,202,6.0,11.0,79,0.00,,,0.00,VWS V14.00,2013-10-20 12:10:00,
2013-10-20 07:15:00,44.6,38.5,29.88,SSW,202,6.0,9.0,79,0.00,,,0.00,VWS V14.00,2013-10-20 12:15:00,
2013-10-20 07:20:00,44.5,38.4,29.88,SSW,202,6.0,10.0,79,0.00,,,0.00,VWS V14.00,2013-10-20 12:20:00,
2013-10-20 07:25:00,44.4,38.6,29.88,SSW,202,6.0,9.0,80,0.00,,,0.00,VWS V14.00,2013-10-20 12:25:00,
2013-10-20 07:30:00,44.3,38.5,29.88,SSW,202,5.0,12.0,80,0.00,,,0.00,VWS V14.00,2013-10-20 12:30:00,
2013-10-20 07:35:00,44.2,38.4,29.88,SSW,202,5.0,9.0,80,0.00,,,0.00,VWS V14.00,2013-10-20 12:35:00,
2013-10-20 07:40:00,44.2,38.8,29.88,South,180,6.0,9.0,81,0.00,,,0.00,VWS V14.00,2013-10-20 12:40:00,
2013-10-20 07:45:00,44.3,38.5,29.88,SSW,202,6.0,10.0,80,0.00,,,0.00,VWS V14.00,2013-10-20 12:45:00,
2013-10-20 07:50:00,44.3,38.5,29.88,SSW,202,6.0,9.0,80,0.00,,,0.00,VWS V14.00,2013-10-20 12:50:00,
2013-10-20 07:55:00,44.5,38.7,29.88,SSW,202,6.0,10.0,80,0.00,,,0.00,VWS V14.00,2013-10-20 12:55:00,
2013-10-20 08:00:00,44.7,38.9,29.88,SSW,202,6.0,12.0,80,0.00,,,0.00,VWS V14.00,2013-10-20 13:00:00,
2013-10-20 08:05:00,44.9,39.1,29.88,South,180,5.0,10.0,80,0.00,,,0.00,VWS V14.00,2013-10-20 13:05:00,
2013-10-20 08:10:00,45.0,39.2,29.88,SSW,202,6.0,9.0,80,0.00,,,0.00,VWS V14.00,2013-10-20 13:10:00,
2013-10-20 08:15:00,45.2,39.4,29.89,SSW,202,6.0,11.0,80,0.00,,,0.00,VWS V14.00,2013-10-20 13:15:00,
2013-10-20 08:20:00,45.3,39.2,29.89,SSW,202,6.0,11.0,79,0.00,,,0.00,VWS V14.00,2013-10-20 13:20:00,
2013-10-20 08:25:00,45.6,39.5,29.89,SSW,202,5.0,8.0,79,0.00,,,0.00,VWS V14.00,2013-10-20 13:25:00,
2013-10-20 08:30:00,45.9,39.8,29.89,SSW,202,5.0,10.0,79,0.00,,,0.00,VWS V14.00,2013-10-20 13:30:00,
2013-10-20 08:35:00,46.3,40.2,29.89,SSW,202,6.0,11.0,79,0.00,,,0.00,VWS V14.00,2013-10-20 13:35:00,
2013-10-20 08:40:00,46.6,40.1,29.89,South,180,5.0,11.0,78,0.00,,,0.00,VWS V14.00,2013-10-20 13:40:00,
2013-10-20 08:45:00,46.9,40.1,29.89,SSW,202,6.0,12.0,77,0.00,,,0.00,VWS V14.00,2013-10-20 13:45:00,
2013-10-20 08:50:00,47.2,40.4,29.90,SSW,202,6.0,12.0,77,0.00,,,0.00,VWS V14.00,2013-10-20 13:50:00,
2013-10-20 08:55:00,47.6,40.4,29.90,SSW,202,7.0,14.0,76,0.00,,,0.00,VWS V14.00,2013-10-20 13:55:00,
2013-10-20 09:00:00,48.1,40.6,29.90,SSW,202,6.0,13.0,75,0.00,,,0.00,VWS V14.00,2013-10-20 14:00:00,
2013-10-20 09:05:00,48.6,40.7,29.90,SSW,202,7.0,15.0,74,0.00,,,0.00,VWS V14.00,2013-10-20 14:05:00,
2013-10-20 09:10:00,49.2,40.9,29.90,SSW,202,6.0,15.0,73,0.00,,,0.00,VWS V14.00,2013-10-20 14:10:00,
2013-10-20 09:15:00,49.6,41.0,29.89,SSW,202,6.0,12.0,72,0.00,,,0.00,VWS V14.00,2013-10-20 14:15:00,
2013-10-20 09:20:00,50.0,41.3,29.89,SSW,202,6.0,10.0,72,0.00,,,0.00,VWS V14.00,2013-10-20 14:20:00,
2013-10-20 09:25:00,50.5,41.5,29.89,SSW,202,6.0,12.0,71,0.00,,,0.00,VWS V14.00,2013-10-20 14:25:00,
2013-10-20 09:30:00,50.9,41.5,29.89,SW,225,5.0,14.0,70,0.00,,,0.00,VWS V14.00,2013-10-20 14:30:00,
2013-10-20 09:35:00,51.3,41.1,29.89,SSW,202,7.0,15.0,68,0.00,,,0.00,VWS V14.00,2013-10-20 14:35:00,
2013-10-20 09:46:00,51.7,41.5,29.89,SSW,202,7.0,17.0,68,0.00,,,0.00,VWS V14.00,2013-10-20 14:46:00,
2013-10-20 09:51:00,52.6,41.6,29.89,South,176,6.0,19.0,66,0.00,,,0.00,VWS V14.00,2013-10-20 14:51:00,
2013-10-20 09:56:00,53.0,42.0,29.89,SSW,202,8.0,11.0,66,0.00,,,0.00,VWS V14.00,2013-10-20 14:56:00,
2013-10-20 10:01:00,53.3,41.5,29.89,SW,230,9.0,15.0,64,0.00,,,0.00,VWS V14.00,2013-10-20 15:01:00,
2013-10-20 10:06:00,53.7,41.8,29.89,WSW,252,11.0,13.0,64,0.00,,,0.00,VWS V14.00,2013-10-20 15:06:00,
2013-10-20 10:11:00,54.2,42.7,29.89,SW,223,6.0,13.0,65,0.00,,,0.00,VWS V14.00,2013-10-20 15:11:00,
2013-10-20 10:16:00,54.6,42.3,29.89,NW,308,6.0,12.0,63,0.00,,,0.00,VWS V14.00,2013-10-20 15:16:00,
2013-10-20 10:21:00,55.1,42.3,29.89,SSW,202,6.0,7.0,62,0.00,,,0.00,VWS V14.00,2013-10-20 15:21:00,
2013-10-20 10:26:00,55.7,42.5,29.89,WSW,246,6.0,12.0,61,0.00,,,0.00,VWS V14.00,2013-10-20 15:26:00,
2013-10-20 10:31:00,56.2,43.4,29.89,SSW,200,4.0,12.0,62,0.00,,,0.00,VWS V14.00,2013-10-20 15:31:00,
2013-10-20 10:36:00,56.7,43.0,29.89,SW,222,4.0,13.0,60,0.00,,,0.00,VWS V14.00,2013-10-20 15:36:00,
2013-10-20 10:41:00,57.1,42.9,29.89,SSW,205,1.0,10.0,59,0.00,,,0.00,VWS V14.00,2013-10-20 15:41:00,
2013-10-20 10:46:00,57.7,42.6,29.88,SW,227,11.0,13.0,57,0.00,,,0.00,VWS V14.00,2013-10-20 15:46:00,
2013-10-20 10:51:00,58.1,42.0,29.89,SSW,193,7.0,13.0,55,0.00,,,0.00,VWS V14.00,2013-10-20 15:51:00,
2013-10-20 10:56:00,58.2,42.1,29.88,WSW,245,5.0,10.0,55,0.00,,,0.00,VWS V14.00,2013-10-20 15:56:00,
2013-10-20 11:01:00,58.8,42.7,29.88,SW,226,2.0,6.0,55,0.00,,,0.00,VWS V14.00,2013-10-20 16:01:00,
2013-10-20 11:06:00,59.4,43.7,29.88,SW,226,6.0,9.0,56,0.00,,,0.00,VWS V14.00,2013-10-20 16:06:00,
2013-10-20 11:11:00,60.2,42.5,29.88,SSW,203,3.0,11.0,52,0.00,,,0.00,VWS V14.00,2013-10-20 16:11:00,
2013-10-20 11:16:00,60.7,42.5,29.88,SW,224,11.0,18.0,51,0.00,,,0.00,VWS V14.00,2013-10-20 16:16:00,
2013-10-20 11:21:00,61.3,43.0,29.88,SW,224,1.0,3.0,51,0.00,,,0.00,VWS V14.00,2013-10-20 16:21:00,
2013-10-20 11:26:00,61.7,42.9,29.87,SSW,207,2.0,7.0,50,0.00,,,0.00,VWS V14.00,2013-10-20 16:26:00,
2013-10-20 11:31:00,62.4,43.0,29.87,South,190,6.0,8.0,49,0.00,,,0.00,VWS V14.00,2013-10-20 16:31:00,
2013-10-20 11:36:00,62.9,42.9,29.87,SSW,210,7.0,10.0,48,0.00,,,0.00,VWS V14.00,2013-10-20 16:36:00,
2013-10-20 11:41:00,63.6,43.6,29.87,South,191,2.0,5.0,48,0.00,,,0.00,VWS V14.00,2013-10-20 16:41:00,
2013-10-20 11:46:00,64.3,43.7,29.87,SSW,212,6.0,14.0,47,0.00,,,0.00,VWS V14.00,2013-10-20 16:46:00,
2013-10-20 11:51:00,64.5,42.7,29.87,SW,231,1.0,4.0,45,0.00,,,0.00,VWS V14.00,2013-10-20 16:51:00,
2013-10-20 11:56:00,64.9,43.1,29.87,SSW,203,1.0,15.0,45,0.00,,,0.00,VWS V14.00,2013-10-20 16:56:00,
2013-10-20 12:01:00,65.3,43.4,29.87,WSW,247,3.0,11.0,45,0.00,,,0.00,VWS V14.00,2013-10-20 17:01:00,
2013-10-20 12:06:00,65.7,43.2,29.86,SW,215,3.0,4.0,44,0.00,,,0.00,VWS V14.00,2013-10-20 17:06:00,
2013-10-20 12:11:00,65.6,42.5,29.86,SSW,199,1.0,8.0,43,0.00,,,0.00,VWS V14.00,2013-10-20 17:11:00,
2013-10-20 12:16:00,66.0,42.9,29.86,South,189,3.0,4.0,43,0.00,,,0.00,VWS V14.00,2013-10-20 17:16:00,
2013-10-20 12:21:00,66.3,43.2,29.86,SW,218,8.0,12.0,43,0.00,,,0.00,VWS V14.00,2013-10-20 17:21:00,
2013-10-20 12:26:00,66.5,43.3,29.86,SSW,192,11.0,12.0,43,0.00,,,0.00,VWS V14.00,2013-10-20 17:26:00,
2013-10-20 12:31:00,66.8,42.4,29.86,South,187,2.0,15.0,41,0.00,,,0.00,VWS V14.00,2013-10-20 17:31:00,
2013-10-20 12:35:00,66.9,44.3,29.86,SW,235,7.0,11.0,44,0.00,,,0.00,VWS V14.00,2013-10-20 17:35:00,
2013-10-20 12:40:00,67.4,43.5,29.86,SW,221,2.0,11.0,42,0.00,,,0.00,VWS V14.00,2013-10-20 17:40:00,
2013-10-20 12:45:00,67.7,43.2,29.86,SW,222,5.0,9.0,41,0.00,,,0.00,VWS V14.00,2013-10-20 17:45:00,
2013-10-20 12:50:00,67.9,43.4,29.86,SSW,207,4.0,5.0,41,0.00,,,0.00,VWS V14.00,2013-10-20 17:50:00,
2013-10-20 12:55:00,68.4,43.2,29.86,SSW,200,9.0,14.0,40,0.00,,,0.00,VWS V14.00,2013-10-20 17:55:00,
2013-10-20 13:00:00,68.4,42.5,29.85,South,190,2.0,11.0,39,0.00,,,0.00,VWS V14.00,2013-10-20 18:00:00,
2013-10-20 13:05:00,68.5,42.6,29.85,SSW,206,6.0,6.0,39,0.00,,,0.00,VWS V14.00,2013-10-20 18:05:00,
2013-10-20 13:10:00,69.0,43.7,29.85,SW,215,0.0,8.0,40,0.00,,,0.00,VWS V14.00,2013-10-20 18:10:00,
2013-10-20 13:15:00,69.2,43.2,29.85,SSW,199,6.0,9.0,39,0.00,,,0.00,VWS V14.00,2013-10-20 18:15:00,
2013-10-20 13:20:00,69.4,43.4,29.85,SSW,193,7.0,9.0,39,0.00,,,0.00,VWS V14.00,2013-10-20 18:20:00,
2013-10-20 13:25:00,69.0,41.7,29.84,SSE,160,7.0,7.0,37,0.00,,,0.00,VWS V14.00,2013-10-20 18:25:00,
2013-10-20 13:30:00,69.1,43.1,29.84,SSW,197,1.0,7.0,39,0.00,,,0.00,VWS V14.00,2013-10-20 18:30:00,
2013-10-20 13:35:00,69.6,43.6,29.84,WSW,238,1.0,2.0,39,0.00,,,0.00,VWS V14.00,2013-10-20 18:35:00,
2013-10-20 13:40:00,70.4,42.9,29.83,WSW,237,0.0,4.0,37,0.00,,,0.00,VWS V14.00,2013-10-20 18:40:00,
2013-10-20 13:45:00,71.2,42.9,29.83,SSW,199,7.0,7.0,36,0.00,,,0.00,VWS V14.00,2013-10-20 18:45:00,
2013-10-20 13:50:00,70.9,43.4,29.83,SSW,202,0.0,5.0,37,0.00,,,0.00,VWS V14.00,2013-10-20 18:50:00,
2013-10-20 13:55:00,71.2,43.6,29.83,SSW,207,6.0,6.0,37,0.00,,,0.00,VWS V14.00,2013-10-20 18:55:00,
2013-10-20 14:00:00,71.4,43.1,29.83,SSW,197,8.0,11.0,36,0.00,,,0.00,VWS V14.00,2013-10-20 19:00:00,
2013-10-20 14:05:00,71.4,43.1,29.83,SSW,198,6.0,6.0,36,0.00,,,0.00,VWS V14.00,2013-10-20 19:05:00,
2013-10-20 14:10:00,71.4,43.1,29.82,South,185,1.0,5.0,36,0.00,,,0.00,VWS V14.00,2013-10-20 19:10:00,
2013-10-20 14:15:00,71.5,42.4,29.82,SSW,213,7.0,9.0,35,0.00,,,0.00,VWS V14.00,2013-10-20 19:15:00,
2013-10-20 14:20:00,71.5,41.7,29.82,SSW,196,15.0,15.0,34,0.00,,,0.00,VWS V14.00,2013-10-20 19:20:00,
2013-10-20 14:25:00,71.2,42.2,29.82,SSW,210,3.0,6.0,35,0.00,,,0.00,VWS V14.00,2013-10-20 19:25:00,
2013-10-20 14:30:00,71.4,42.3,29.82,SSW,205,1.0,2.0,35,0.00,,,0.00,VWS V14.00,2013-10-20 19:30:00,
2013-10-20 14:35:00,72.1,41.4,29.82,SSW,212,3.0,10.0,33,0.00,,,0.00,VWS V14.00,2013-10-20 19:35:00,
2013-10-20 14:40:00,71.9,41.3,29.82,WSW,243,5.0,7.0,33,0.00,,,0.00,VWS V14.00,2013-10-20 19:40:00,
2013-10-20 14:45:00,72.1,42.2,29.82,SSW,195,5.0,6.0,34,0.00,,,0.00,VWS V14.00,2013-10-20 19:45:00,
2013-10-20 14:50:00,71.8,41.2,29.82,SSW,207,2.0,3.0,33,0.00,,,0.00,VWS V14.00,2013-10-20 19:50:00,
2013-10-20 14:55:00,71.6,41.0,29.82,WSW,257,8.0,16.0,33,0.00,,,0.00,VWS V14.00,2013-10-20 19:55:00,
2013-10-20 15:00:00,71.3,40.0,29.82,SW,214,5.0,14.0,32,0.00,,,0.00,VWS V14.00,2013-10-20 20:00:00,
2013-10-20 15:05:00,71.5,40.9,29.82,South,189,0.0,6.0,33,0.00,,,0.00,VWS V14.00,2013-10-20 20:05:00,
2013-10-20 15:10:00,71.7,43.3,29.82,SW,222,9.0,9.0,36,0.00,,,0.00,VWS V14.00,2013-10-20 20:10:00,
2013-10-20 15:15:00,71.8,40.4,29.81,SW,222,7.0,9.0,32,0.00,,,0.00,VWS V14.00,2013-10-20 20:15:00,
2013-10-20 15:20:00,71.5,41.7,29.81,SSW,193,6.0,7.0,34,0.00,,,0.00,VWS V14.00,2013-10-20 20:20:00,
2013-10-20 15:25:00,71.7,40.3,29.81,South,191,11.0,16.0,32,0.00,,,0.00,VWS V14.00,2013-10-20 20:25:00,
2013-10-20 15:30:00,71.8,42.7,29.81,SW,220,5.0,10.0,35,0.00,,,0.00,VWS V14.00,2013-10-20 20:30:00,
2013-10-20 15:35:00,72.1,41.4,29.81,SSW,198,7.0,7.0,33,0.00,,,0.00,VWS V14.00,2013-10-20 20:35:00,
2013-10-20 15:40:00,71.7,40.3,29.81,West,259,4.0,20.0,32,0.00,,,0.00,VWS V14.00,2013-10-20 20:40:00,
2013-10-20 15:45:00,71.1,41.3,29.81,SW,226,2.0,14.0,34,0.00,,,0.00,VWS V14.00,2013-10-20 20:45:00,
2013-10-20 15:50:00,70.8,40.3,29.81,SSW,199,11.0,18.0,33,0.00,,,0.00,VWS V14.00,2013-10-20 20:50:00,
2013-10-20 15:55:00,70.2,39.8,29.81,SSW,205,4.0,10.0,33,0.00,,,0.00,VWS V14.00,2013-10-20 20:55:00,
2013-10-20 16:00:00,69.7,40.1,29.81,SW,214,5.0,6.0,34,0.00,,,0.00,VWS V14.00,2013-10-20 21:00:00,
2013-10-20 16:05:00,69.2,39.7,29.81,SSW,205,2.0,2.0,34,0.00,,,0.00,VWS V14.00,2013-10-20 21:05:00,
2013-10-20 16:10:00,68.9,40.2,29.81,South,190,1.0,3.0,35,0.00,,,0.00,VWS V14.00,2013-10-20 21:10:00,
2013-10-20 16:15:00,68.8,40.8,29.81,SSW,195,0.0,3.0,36,0.00,,,0.00,VWS V14.00,2013-10-20 21:15:00,
2013-10-20 16:20:00,68.9,40.9,29.81,SW,218,6.0,6.0,36,0.00,,,0.00,VWS V14.00,2013-10-20 21:20:00,
2013-10-20 16:25:00,69.1,41.8,29.81,South,174,4.0,8.0,37,0.00,,,0.00,VWS V14.00,2013-10-20 21:25:00,
2013-10-20 16:30:00,69.2,40.4,29.81,SW,215,4.0,8.0,35,0.00,,,0.00,VWS V14.00,2013-10-20 21:30:00,
2013-10-20 16:35:00,69.0,41.0,29.81,SW,232,7.0,11.0,36,0.00,,,0.00,VWS V14.00,2013-10-20 21:35:00,
2013-10-20 16:40:00,68.9,40.2,29.81,SW,225,1.0,3.0,35,0.00,,,0.00,VWS V14.00,2013-10-20 21:40:00,
2013-10-20 16:45:00,68.9,41.6,29.81,South,189,1.0,3.0,37,0.00,,,0.00,VWS V14.00,2013-10-20 21:45:00,
2013-10-20 16:50:00,69.1,41.8,29.81,SSW,203,3.0,10.0,37,0.00,,,0.00,VWS V14.00,2013-10-20 21:50:00,
2013-10-20 16:55:00,69.3,41.2,29.81,SSW,211,4.0,6.0,36,0.00,,,0.00,VWS V14.00,2013-10-20 21:55:00,
2013-10-20 17:00:00,69.1,41.0,29.81,SSW,192,3.0,5.0,36,0.00,,,0.00,VWS V14.00,2013-10-20 22:00:00,
2013-10-20 17:05:00,68.9,42.3,29.81,South,185,7.0,8.0,38,0.00,,,0.00,VWS V14.00,2013-10-20 22:05:00,
2013-10-20 17:10:00,68.6,41.3,29.81,South,187,7.0,8.0,37,0.00,,,0.00,VWS V14.00,2013-10-20 22:10:00,
2013-10-20 17:15:00,68.3,40.3,29.81,SSW,209,4.0,7.0,36,0.00,,,0.00,VWS V14.00,2013-10-20 22:15:00,
2013-10-20 17:20:00,68.2,41.0,29.81,SSW,194,3.0,7.0,37,0.00,,,0.00,VWS V14.00,2013-10-20 22:20:00,
2013-10-20 17:25:00,68.0,40.8,29.81,SW,220,1.0,4.0,37,0.00,,,0.00,VWS V14.00,2013-10-20 22:25:00,
2013-10-20 17:30:00,67.7,40.5,29.81,SSE,156,3.0,6.0,37,0.00,,,0.00,VWS V14.00,2013-10-20 22:30:00,
2013-10-20 17:35:00,67.3,40.2,29.81,SSW,207,3.0,5.0,37,0.00,,,0.00,VWS V14.00,2013-10-20 22:35:00,
2013-10-20 17:40:00,67.0,40.6,29.81,SSW,193,1.0,2.0,38,0.00,,,0.00,VWS V14.00,2013-10-20 22:40:00,
2013-10-20 17:45:00,66.8,40.4,29.81,SW,222,2.0,3.0,38,0.00,,,0.00,VWS V14.00,2013-10-20 22:45:00,
2013-10-20 17:50:00,66.6,40.2,29.81,South,185,1.0,1.0,38,0.00,,,0.00,VWS V14.00,2013-10-20 22:50:00,
2013-10-20 17:55:00,66.4,40.0,29.82,SW,217,1.0,1.0,38,0.00,,,0.00,VWS V14.00,2013-10-20 22:55:00,
2013-10-20 18:00:00,66.1,40.5,29.82,SSW,211,2.0,2.0,39,0.00,,,0.00,VWS V14.00,2013-10-20 23:00:00,
2013-10-20 18:05:00,65.7,40.7,29.82,SSW,205,4.0,4.0,40,0.00,,,0.00,VWS V14.00,2013-10-20 23:05:00,
2013-10-20 18:10:00,65.3,40.4,29.82,South,176,0.0,1.0,40,0.00,,,0.00,VWS V14.00,2013-10-20 23:10:00,
2013-10-20 18:15:00,65.0,40.8,29.82,SSW,204,1.0,2.0,41,0.00,,,0.00,VWS V14.00,2013-10-20 23:15:00,
2013-10-20 18:20:00,64.7,41.1,29.82,South,180,4.0,4.0,42,0.00,,,0.00,VWS V14.00,2013-10-20 23:20:00,
2013-10-20 18:25:00,64.2,40.7,29.82,South,189,1.0,1.0,42,0.00,,,0.00,VWS V14.00,2013-10-20 23:25:00,
2013-10-20 18:30:00,63.9,41.0,29.83,SSW,207,2.0,7.0,43,0.00,,,0.00,VWS V14.00,2013-10-20 23:30:00,
2013-10-20 18:35:00,63.6,40.7,29.83,SSW,199,6.0,6.0,43,0.00,,,0.00,VWS V14.00,2013-10-20 23:35:00,
2013-10-20 18:40:00,63.3,39.8,29.83,South,189,3.0,10.0,42,0.00,,,0.00,VWS V14.00,2013-10-20 23:40:00,
2013-10-20 18:45:00,63.0,40.2,29.83,South,185,5.0,9.0,43,0.00,,,0.00,VWS V14.00,2013-10-20 23:45:00,
2013-10-20 18:50:00,62.7,39.9,29.83,South,183,7.0,7.0,43,0.00,,,0.00,VWS V14.00,2013-10-20 23:50:00,
2013-10-20 18:55:00,62.4,39.6,29.83,SSW,195,5.0,7.0,43,0.00,,,0.00,VWS V14.00,2013-10-20 23:55:00,
2013-10-20 19:00:00,62.1,39.4,29.83,South,187,5.0,7.0,43,0.00,,,0.00,VWS V14.00,2013-10-21 00:00:00,
2013-10-20 19:05:00,61.8,39.7,29.83,SSE,164,0.0,8.0,44,0.00,,,0.00,VWS V14.00,2013-10-21 00:05:00,
2013-10-20 19:10:00,61.4,39.3,29.84,SSW,199,5.0,7.0,44,0.00,,,0.00,VWS V14.00,2013-10-21 00:10:00,
2013-10-20 19:17:00,61.1,39.6,29.84,SSW,195,5.0,5.0,45,0.00,,,0.00,VWS V14.00,2013-10-21 00:17:00,
2013-10-20 19:22:00,60.8,39.9,29.84,SSW,195,1.0,5.0,46,0.00,,,0.00,VWS V14.00,2013-10-21 00:22:00,
2013-10-20 19:27:00,60.4,39.5,29.84,South,175,0.0,5.0,46,0.00,,,0.00,VWS V14.00,2013-10-21 00:27:00,
2013-10-20 19:32:00,60.1,39.8,29.84,South,178,0.0,5.0,47,0.00,,,0.00,VWS V14.00,2013-10-21 00:32:00,
2013-10-20 19:37:00,59.8,39.5,29.84,SSW,202,7.0,7.0,47,0.00,,,0.00,VWS V14.00,2013-10-21 00:37:00,
2013-10-20 19:42:00,59.5,39.8,29.85,SSE,163,4.0,6.0,48,0.00,,,0.00,VWS V14.00,2013-10-21 00:42:00,
2013-10-20 19:47:00,59.5,39.8,29.85,SSW,193,4.0,4.0,48,0.00,,,0.00,VWS V14.00,2013-10-21 00:47:00,
2013-10-20 19:52:00,59.3,40.2,29.85,SSW,201,5.0,7.0,49,0.00,,,0.00,VWS V14.00,2013-10-21 00:52:00,
2013-10-20 19:56:00,59.1,40.0,29.85,South,182,5.0,7.0,49,0.00,,,0.00,VWS V14.00,2013-10-21 00:56:00,
2013-10-20 20:01:00,59.0,40.4,29.86,SSW,197,4.0,9.0,50,0.00,,,0.00,VWS V14.00,2013-10-21 01:01:00,
2013-10-20 20:06:00,58.9,39.8,29.86,South,183,3.0,9.0,49,0.00,,,0.00,VWS V14.00,2013-10-21 01:06:00,
2013-10-20 20:11:00,58.9,39.8,29.86,WSW,239,4.0,7.0,49,0.00,,,0.00,VWS V14.00,2013-10-21 01:11:00,
2013-10-20 20:15:00,58.9,39.8,29.86,SSW,193,5.0,7.0,49,0.00,,,0.00,VWS V14.00,2013-10-21 01:15:00,
2013-10-20 20:20:00,58.9,39.8,29.86,SSW,202,4.0,9.0,49,0.00,,,0.00,VWS V14.00,2013-10-21 01:20:00,
2013-10-20 20:25:00,58.9,39.8,29.86,SSW,202,3.0,8.0,49,0.00,,,0.00,VWS V14.00,2013-10-21 01:25:00,
2013-10-20 20:30:00,58.8,39.7,29.86,SSW,202,3.0,6.0,49,0.00,,,0.00,VWS V14.00,2013-10-21 01:30:00,
2013-10-20 20:35:00,58.7,39.6,29.87,SSW,202,3.0,8.0,49,0.00,,,0.00,VWS V14.00,2013-10-21 01:35:00,
2013-10-20 20:40:00,58.5,39.9,29.87,SSW,202,2.0,5.0,50,0.00,,,0.00,VWS V14.00,2013-10-21 01:40:00,
2013-10-20 20:45:00,58.3,39.8,29.87,SSW,202,2.0,6.0,50,0.00,,,0.00,VWS V14.00,2013-10-21 01:45:00,
2013-10-20 20:50:00,58.1,40.1,29.87,SSW,202,1.0,6.0,51,0.00,,,0.00,VWS V14.00,2013-10-21 01:50:00,
2013-10-20 20:55:00,57.9,39.9,29.88,SW,225,1.0,4.0,51,0.00,,,0.00,VWS V14.00,2013-10-21 01:55:00,
2013-10-20 21:00:00,57.7,39.7,29.88,SW,225,0.0,3.0,51,0.00,,,0.00,VWS V14.00,2013-10-21 02:00:00,
2013-10-20 21:05:00,57.5,40.0,29.88,SW,225,0.0,0.0,52,0.00,,,0.00,VWS V14.00,2013-10-21 02:05:00,
2013-10-20 21:10:00,57.3,39.8,29.88,SW,225,0.0,1.0,52,0.00,,,0.00,VWS V14.00,2013-10-21 02:10:00,
2013-10-20 21:15:00,56.9,40.0,29.88,SW,225,0.0,0.0,53,0.00,,,0.00,VWS V14.00,2013-10-21 02:15:00,
2013-10-20 21:20:00,56.6,40.2,29.88,SW,225,0.0,0.0,54,0.00,,,0.00,VWS V14.00,2013-10-21 02:20:00,
2013-10-20 21:25:00,56.1,40.6,29.89,SW,225,0.0,0.0,56,0.00,,,0.00,VWS V14.00,2013-10-21 02:25:00,
2013-10-20 21:30:00,55.7,41.2,29.89,West,270,0.0,1.0,58,0.00,,,0.00,VWS V14.00,2013-10-21 02:30:00,
2013-10-20 21:35:00,55.3,42.5,29.89,WSW,248,0.0,1.0,62,0.00,,,0.00,VWS V14.00,2013-10-21 02:35:00,
2013-10-20 21:40:00,54.8,41.6,29.89,WSW,248,0.0,3.0,61,0.00,,,0.00,VWS V14.00,2013-10-21 02:40:00,
2013-10-20 21:45:00,54.2,41.1,29.90,West,270,0.0,1.0,61,0.00,,,0.00,VWS V14.00,2013-10-21 02:45:00,
2013-10-20 21:50:00,53.7,41.0,29.90,WSW,248,0.0,2.0,62,0.00,,,0.00,VWS V14.00,2013-10-21 02:50:00,
2013-10-20 21:55:00,53.3,41.0,29.90,SW,225,0.0,3.0,63,0.00,,,0.00,VWS V14.00,2013-10-21 02:55:00,
2013-10-20 22:00:00,53.0,40.8,29.90,SW,225,1.0,4.0,63,0.00,,,0.00,VWS V14.00,2013-10-21 03:00:00,
2013-10-20 22:05:00,53.0,40.8,29.90,WSW,248,0.0,3.0,63,0.00,,,0.00,VWS V14.00,2013-10-21 03:05:00,
2013-10-20 22:10:00,53.0,40.8,29.90,SW,225,1.0,3.0,63,0.00,,,0.00,VWS V14.00,2013-10-21 03:10:00,
2013-10-20 22:15:00,53.3,40.6,29.90,SW,225,0.0,3.0,62,0.00,,,0.00,VWS V14.00,2013-10-21 03:15:00,
2013-10-20 22:20:00,53.5,41.2,29.90,SSW,202,1.0,4.0,63,0.00,,,0.00,VWS V14.00,2013-10-21 03:20:00,
2013-10-20 22:25:00,53.7,41.0,29.91,SW,225,1.0,5.0,62,0.00,,,0.00,VWS V14.00,2013-10-21 03:25:00,
2013-10-20 22:30:00,53.8,41.5,29.91,SW,225,0.0,3.0,63,0.00,,,0.00,VWS V14.00,2013-10-21 03:30:00,
2013-10-20 22:35:00,53.9,42.8,29.91,SW,225,0.0,3.0,66,0.00,,,0.00,VWS V14.00,2013-10-21 03:35:00,
2013-10-20 22:40:00,54.1,44.2,29.91,SW,225,0.0,3.0,69,0.00,,,0.00,VWS V14.00,2013-10-21 03:40:00,
2013-10-20 22:45:00,54.1,44.2,29.91,WSW,248,0.0,2.0,69,0.00,,,0.00,VWS V14.00,2013-10-21 03:45:00,
2013-10-20 22:50:00,54.1,44.5,29.91,SW,225,0.0,3.0,70,0.00,,,0.00,VWS V14.00,2013-10-21 03:50:00,
2013-10-20 22:55:00,54.0,44.1,29.91,SW,225,0.0,0.0,69,0.00,,,0.00,VWS V14.00,2013-10-21 03:55:00,
2013-10-20 23:00:00,53.9,44.0,29.91,SW,225,0.0,0.0,69,0.00,,,0.00,VWS V14.00,2013-10-21 04:00:00,
2013-10-20 23:05:00,53.7,44.9,29.91,NW,315,1.0,6.0,72,0.00,,,0.00,VWS V14.00,2013-10-21 04:05:00,
2013-10-20 23:10:00,53.4,44.6,29.92,NW,315,0.0,4.0,72,0.00,,,0.00,VWS V14.00,2013-10-21 04:10:00,
2013-10-20 23:15:00,52.8,43.7,29.91,NW,315,0.0,0.0,71,0.00,,,0.00,VWS V14.00,2013-10-21 04:15:00,
2013-10-20 23:20:00,52.4,42.9,29.91,WSW,248,0.0,2.0,70,0.00,,,0.00,VWS V14.00,2013-10-21 04:20:00,
2013-10-20 23:25:00,52.1,42.6,29.91,SW,225,0.0,4.0,70,0.00,,,0.00,VWS V14.00,2013-10-21 04:25:00,
2013-10-20 23:30:00,51.9,42.4,29.91,SW,225,1.0,4.0,70,0.00,,,0.00,VWS V14.00,2013-10-21 04:30:00,
2013-10-20 23:35:00,51.9,42.1,29.91,SW,225,1.0,4.0,69,0.00,,,0.00,VWS V14.00,2013-10-21 04:35:00,
2013-10-20 23:40:00,52.0,42.9,29.92,SW,225,1.0,4.0,71,0.00,,,0.00,VWS V14.00,2013-10-21 04:40:00,
2013-10-20 23:45:00,52.1,42.2,29.91,SW,225,2.0,5.0,69,0.00,,,0.00,VWS V14.00,2013-10-21 04:45:00,
2013-10-20 23:50:00,52.3,42.8,29.91,SW,225,2.0,5.0,70,0.00,,,0.00,VWS V14.00,2013-10-21 04:50:00,
2013-10-20 23:55:00,52.3,43.9,29.92,SW,225,1.0,4.0,73,0.00,,,0.00,VWS V14.00,2013-10-21 04:55:00,